#timestamp,LO_Frequency,Hit 
1502049615.0,286047003.4,N
1502049615.9,286047003.4,N
1502049635.8,286047003.1,N
1502049655.6,286047001.7,N
1502049675.4,286047004.2,N
1502049695.3,286047005.8,N
1502049715.1,286047003.3,N
1502049716.0,286047003.3,N
1502049735.8,286047003.0,N
1502049755.7,286047005.5,N
1502049775.5,286047003.2,N
1502049795.3,286047004.9,N
1502049815.2,286047005.0,N
1502049835.9,286047003.0,N
1502049855.7,286047002.0,N
1502049875.6,286047000.3,N
1502049895.4,286047002.7,N
1502049915.2,286047002.4,N
1502049935.0,286047001.3,N
1502049935.9,286047001.3,N
1502049955.8,286047005.9,P
1502049975.6,286047002.0,N
1502049995.5,286047000.7,N
1502050015.3,286046998.5,N
1502050035.1,286047001.0,N
1502050055.9,286046998.2,N
1502050075.7,286047000.3,N
1502050095.5,286047002.8,N
1502050115.4,286047001.1,N
1502050135.2,286046998.4,N
1502050155.0,286047000.8,N
1502050155.9,286047000.8,N
1502050175.7,286047000.8,N
1502050195.6,286046996.5,N
1502050215.4,286047001.0,N
1502050235.2,286047000.5,N
1502050255.1,286047000.8,N
1502050256.0,286047000.8,N
1502050275.8,286047000.7,N
1502050295.6,286046994.9,N
1502050315.5,286046995.0,N
1502050335.3,286046996.8,N
1502050355.1,286046996.4,N
1502050375.9,286046995.0,N
1502050395.7,286046997.6,N
1502050415.5,286046996.8,N
1502050435.3,286046996.5,N
1502050455.2,286046996.6,N
1502050475.0,286046998.6,N
1502050475.9,286046998.6,N
1502050495.7,286047002.2,N
1502050515.6,286047002.5,N
1502050535.4,286047002.0,N
1502050555.2,286047001.8,N
1502050575.1,286047000.2,N
1502050576.0,286047000.2,N
1502050595.8,286047000.6,N
1502050615.6,286047000.3,N
1502050635.5,286047003.8,N
1502050655.3,286046999.8,N
1502050675.1,286047001.5,N
1502050695.9,286047001.9,N
1502050715.7,286047003.8,N
1502050735.5,286047004.2,N
1502050755.4,286047001.3,N
1502050775.2,286047002.0,N
1502050795.0,286047001.7,N
1502050795.9,286047001.7,N
1502050815.8,286047004.3,N
1502050835.6,286047003.8,N
1502050855.4,286047002.2,N
1502050875.2,286047000.4,N
1502050895.1,286046998.1,N
1502050896.0,286046998.1,N
1502050915.8,286046998.6,N
1502050935.6,286046998.5,N
1502050955.5,286046996.6,N
1502050975.3,286046996.6,N
1502050995.1,286046995.7,N
1502051015.9,286046995.1,N
1502051035.7,286046996.9,N
1502051055.5,286047001.1,N
1502051075.4,286047002.2,N
1502051095.2,286047004.2,N
1502051115.0,286047001.5,N
1502051115.9,286047001.5,N
1502051135.8,286047002.6,N
1502051155.6,286046998.5,N
1502051175.4,286046998.3,N
1502051195.3,286046996.7,N
1502051215.1,286046997.3,N
1502051216.0,286046997.3,N
1502051235.8,286046995.5,N
1502051255.7,286046996.5,N
1502051275.5,286046998.9,N
1502051295.3,286046999.3,N
1502051315.2,286047000.0,N
1502051335.9,286047000.7,N
1502051355.7,286046998.6,N
1502051375.5,286046998.9,N
1502051395.4,286047001.1,N
1502051415.2,286046998.1,N
1502051435.0,286046999.6,N
1502051435.9,286046999.6,N
1502051455.8,286046998.1,N
1502051475.6,286047001.2,N
1502051495.4,286047001.2,N
1502051515.3,286047000.3,N
1502051535.1,286047002.3,N
1502051555.8,286047000.6,N
1502051575.7,286047000.8,N
1502051595.5,286047000.2,N
1502051615.3,286047004.3,N
1502051635.2,286047005.1,N
1502051655.9,286047005.4,N
1502051675.7,286047005.9,N
1502051695.6,286047003.1,N
1502051715.4,286047004.5,N
1502051735.2,286047003.1,N
1502051755.0,286047004.0,N
1502051756.0,286047004.0,N
1502051775.8,286047004.4,N
1502051795.6,286047002.7,N
1502051815.4,286046999.9,N
1502051835.3,286047000.5,N
1502051855.1,286047002.8,N
1502051875.8,286047000.3,N
1502051895.7,286047000.8,N
1502051915.5,286046998.1,N
1502051935.3,286046996.9,N
1502051955.2,286046995.4,N
1502051975.9,286046997.1,N
1502051995.7,286046998.2,N
1502052015.6,286046998.2,N
1502052035.4,286047001.3,N
1502052055.2,286047003.3,N
1502052075.1,286047005.1,N
1502052076.0,286047005.1,N
1502052095.8,286047003.0,N
1502052115.6,286047005.8,N
1502052135.4,286047003.6,N
1502052155.3,286047002.0,N
1502052175.1,286047000.3,N
1502052195.8,286046999.9,N
1502052215.7,286046998.6,N
1502052235.5,286047001.4,N
1502052255.3,286047003.6,N
1502052275.2,286047005.2,N
1502052295.9,286047005.4,N
1502052315.7,286047004.8,N
1502052335.6,286047005.8,N
1502052355.4,286047004.6,N
1502052375.2,286047007.1,N
1502052395.1,286047004.9,N
1502052396.0,286047004.9,N
1502052415.8,286047007.3,N
1502052435.6,286047006.7,N
1502052455.5,286047004.6,N
1502052475.3,286047002.1,N
1502052495.1,286047003.9,N
1502052515.8,286047007.4,N
1502052535.7,286047008.5,N
1502052555.5,286047003.3,N
1502052575.3,286047004.1,N
1502052595.2,286047001.7,N
1502052615.9,286047003.3,N
1502052635.7,286047004.1,N
1502052655.6,286047001.3,N
1502052675.4,286047004.7,N
1502052695.2,286047006.0,N
1502052715.1,286047003.7,N
1502052716.0,286047003.7,N
1502052735.8,286047005.5,N
1502052755.6,286047005.8,N
1502052775.5,286047006.1,N
1502052795.3,286047009.0,P
1502052815.1,286047001.6,N
1502052835.9,286047001.4,N
1502052855.7,286046999.1,N
1502052875.5,286046996.6,N
1502052895.4,286047000.7,N
1502052915.2,286047000.5,N
1502052935.0,286047002.5,N
1502052935.9,286047002.5,N
1502052955.7,286047001.9,N
1502052975.6,286047002.5,N
1502052995.4,286047002.8,N
1502053015.2,286047000.4,N
1502053035.1,286047000.8,N
1502053036.0,286047000.8,N
1502053055.8,286047001.1,N
1502053075.6,286047000.0,N
1502053095.5,286047000.3,N
1502053115.3,286046998.3,N
1502053135.1,286046999.1,N
1502053155.9,286046999.1,N
1502053175.7,286046997.0,N
1502053195.5,286046999.6,N
